This is the latest recevied weather packets stored in our database for station/object DO7CRZ-12. If no packets are shown the sender has not sent any weather packets the latest 10 day(s).
| Time | Temp. | Humidity | Pressure | Rain* | Wind** | Luminosity | Snow |
|---|---|---|---|---|---|---|---|
| 1778225845 | 10° C | 94% | 1018.6 hPa | 0 mm | - | 31 W/m² | - |
| 1778225242 | 9.44° C | 94% | 1018.5 hPa | 0 mm | - | 32 W/m² | - |
| 1778224036 | 9.44° C | 94% | 1018.5 hPa | 0 mm | - | 21 W/m² | - |
| 1778223449 | 9.44° C | 94% | 1018.3 hPa | 0 mm | - | 19 W/m² | - |
| 1778222845 | 9.44° C | 95% | 1018.2 hPa | 0 mm | - | 22 W/m² | - |
| 1778222242 | 9.44° C | 95% | 1018.1 hPa | 0 mm | - | 19 W/m² | - |
| 1778221639 | 10° C | 96% | 1017.9 hPa | 0 mm | - | 23 W/m² | - |
| 1778221037 | 9.44° C | 96% | 1017.9 hPa | 0 mm | - | 30 W/m² | - |
| 1778220449 | 9.44° C | 96% | 1017.9 hPa | 0 mm | - | 26 W/m² | - |
| 1778219846 | 9.44° C | 96% | 1017.8 hPa | 0 mm | - | 20 W/m² | - |
| 1778219243 | 8.89° C | 96% | 1017.7 hPa | 0 mm | - | 13 W/m² | - |
| 1778218640 | 8.89° C | 96% | 1017.7 hPa | 0 mm | - | 16 W/m² | - |
| 1778218037 | 8.89° C | 98% | 1017.8 hPa | 0 mm | - | 8 W/m² | - |
| 1778217450 | 8.89° C | 97% | 1017.8 hPa | 0 mm | - | 6 W/m² | - |
| 1778216846 | 8.89° C | 98% | 1017.6 hPa | 0 mm | - | 5 W/m² | - |
| 1778215641 | 8.89° C | 97% | 1017.5 hPa | 0 mm | - | 4 W/m² | - |
| 1778215038 | 8.89° C | 97% | 1017.6 hPa | 0 mm | - | 3 W/m² | - |
| 1778214435 | 8.33° C | 97% | 1017.5 hPa | 0 mm | - | 2 W/m² | - |
| 1778213246 | 8.33° C | 97% | 1017.2 hPa | 0 mm | - | 0 W/m² | - |
| 1778212641 | 8.33° C | 97% | 1017.2 hPa | 0 mm | - | 1 W/m² | - |
| 1778212038 | 8.33° C | 97% | 1017.1 hPa | 0 mm | - | 0 W/m² | - |
| 1778211436 | 8.89° C | 97% | 1017.1 hPa | 0 mm | - | 0 W/m² | - |
| 1778210849 | 8.33° C | 97% | 1017.1 hPa | 0 mm | - | 0 W/m² | - |
| 1778210246 | 8.33° C | 97% | 1017.1 hPa | 0 mm | - | 0 W/m² | - |
| 1778209642 | 8.33° C | 97% | 1017 hPa | 0 mm | - | 0 W/m² | - |
* Rain latest hour (hover to see other rain measurements)
** Current wind speed in m/s (hover to see current wind gust speed)